Simultaneous Nadir Overpasses (SNOs) Predictions

Prediction of SNOs between LANDSAT-8 and METOP-A Satellite Orbit:

Table of predicted SNOs for the next 14.0 days since TLE Epoch: 1/4/2020
Index Date (LANDSAT-8) Time (LANDSAT-8) Lat,Lon (LANDSAT-8) SZA (LANDSAT-8 ) Date (METOP-A) Time (METOP-A) Lat,Lon (METOP-A) SZA (METOP-A ) Distance(km) Time Diff (sec)
1 01/05/2020 07:06:36 81.49, 119.91 106.52 01/05/2020 07:06:15 81.48, 119.95 106.51 1.21 21
2 01/05/2020 07:56:04 -81.47, -72.91 73.55 01/05/2020 07:56:56 -81.48, -72.74 73.50 3.11 52
3 01/08/2020 02:40:50 81.48,-173.94 106.12 01/08/2020 02:40:38 81.48,-174.13 106.10 3.22 12
4 01/08/2020 03:30:17 -81.48, -6.33 73.90 01/08/2020 03:31:18 -81.48, -6.39 73.87 1.05 61
5 01/10/2020 22:15:04 81.48,-107.39 105.71 01/10/2020 22:15:00 81.48,-107.40 105.70 0.18 4
6 01/10/2020 23:04:31 -81.48, 60.23 74.31 01/10/2020 23:05:40 -81.48, 60.36 74.27 2.10 69
7 01/13/2020 16:59:52 -81.49, 151.49 74.76 01/13/2020 16:58:43 -81.48, 151.40 74.80 1.52 69
8 01/13/2020 17:49:18 81.49, -40.86 105.24 01/13/2020 17:49:22 81.48, -40.69 105.26 2.94 4
9 01/16/2020 12:34:06 -81.47,-142.36 75.32 01/16/2020 12:33:05 -81.48,-142.27 75.33 1.85 61




NCC Satellite Simultaneous Nadir Overpasses (SNOs) Prediction Service
